FW3224 Weather Reports


time (UTC)temp
C
wind
direction
speed
KPH
gust
KPH
rain 1hr
cm
rain 24hr
cm
rain mn
cm
humidity
%
barometer
mb
20260905235050 18 243 4.8 20.9 0.00 0.00 0.00 46 1015.7
20260905234550 18 238 6.4 19.3 0.00 0.00 0.00 45 1015.8
20260905234050 18 216 6.4 12.9 0.00 0.00 0.00 47 1015.8
20260905233549 18 211 8.0 16.1 0.00 0.00 0.00 46 1015.7
20260905233057 18 229 6.4 27.4 0.00 0.00 0.00 46 1015.7
20260905232548 18 186 11.3 25.7 0.00 0.00 0.00 45 1016.0
20260905232048 18 247 3.2 19.3 0.00 0.00 0.00 49 1015.8
20260905231547 18 240 6.4 19.3 0.00 0.00 0.00 47 1015.6
20260905231046 18 332 4.8 17.7 0.00 0.00 0.00 49 1015.6
20260905230546 17 248 8.0 24.1 0.00 0.00 0.00 48 1015.5
20260905230046 17 270 9.7 24.1 0.00 0.00 0.00 47 1015.5
20260905225545 17 250 11.3 22.5 0.00 0.00 0.00 48 1015.4
20260905225045 17 235 6.4 16.1 0.00 0.00 0.00 49 1015.4
20260905224609 17 221 4.8 19.3 0.00 0.00 0.00 50 1015.4
20260905224043 17 221 9.7 20.9 0.00 0.00 0.00 50 1015.3
20260905223544 17 245 8.0 20.9 0.00 0.00 0.00 51 1015.3
20260905223046 17 259 8.0 19.3 0.00 0.00 0.00 50 1015.3
20260905222545 17 276 8.0 19.3 0.00 0.00 0.00 49 1015.2
20260905222046 17 212 6.4 22.5 0.00 0.00 0.00 51 1015.2
20260905221542 17 261 12.9 22.5 0.00 0.00 0.00 49 1015.1
20260905221041 17 231 11.3 20.9 0.00 0.00 0.00 49 1015.1
20260905220541 17 241 6.4 20.9 0.00 0.00 0.00 50 1015.0
20260905220041 17 225 11.3 22.5 0.00 0.00 0.00 50 1014.9
20260905215541 16 252 11.3 24.1 0.00 0.00 0.00 50 1014.9
20260905215039 16 254 11.3 24.1 0.00 0.00 0.00 50 1015.1
20260905214546 16 306 6.4 22.5 0.00 0.00 0.00 50 1014.8
20260905214038 16 251 8.0 25.7 0.00 0.00 0.00 50 1014.8
20260905213540 16 252 8.0 25.7 0.00 0.00 0.00 50 1014.5
20260905213038 16 259 8.0 24.1 0.00 0.00 0.00 50 1014.4
20260905212537 16 254 9.7 24.1 0.00 0.00 0.00 49 1014.4
20260905212039 16 244 8.0 17.7 0.00 0.00 0.00 49 1014.6
20260905211543 16 290 6.4 19.3 0.00 0.00 0.00 50 1014.6
20260905211034 16 239 8.0 19.3 0.00 0.00 0.00 49 1014.5
20260905210533 16 287 4.8 22.5 0.00 0.00 0.00 49 1014.4
20260905210041 16 259 9.7 22.5 0.00 0.00 0.00 48 1014.3
20260905205533 16 234 11.3 19.3 0.00 0.00 0.00 49 1014.0
20260905205033 16 237 8.0 20.9 0.00 0.00 0.00 49 1013.8
20260905204530 16 240 11.3 24.1 0.00 0.00 0.00 48 1013.7
20260905204029 16 279 9.7 17.7 0.00 0.00 0.00 49 1013.7
20260905203528 16 254 6.4 16.1 0.00 0.00 0.00 49 1013.9
20260905203027 16 244 4.8 16.1 0.00 0.00 0.00 49 1013.6
20260905202527 16 235 9.7 16.1 0.00 0.00 0.00 50 1013.4
20260905202025 16 261 8.0 16.1 0.00 0.00 0.00 50 1013.5
20260905201523 16 250 6.4 16.1 0.00 0.00 0.00 49 1013.5
20260905201021 17 235 8.0 17.7 0.00 0.00 0.00 47 1013.3
20260905200527 17 229 6.4 22.5 0.00 0.00 0.00 45 1013.1
20260905200026 17 240 9.7 24.1 0.00 0.00 0.00 44 1012.9
20260905195518 17 273 8.0 24.1 0.00 0.00 0.00 43 1012.9
20260905195018 17 227 8.0 27.4 0.00 0.00 0.00 43 1013.1
20260905194519 17 219 8.0 20.9 0.00 0.00 0.00 43 1013.1
20260905194016 17 261 11.3 24.1 0.00 0.00 0.00 43 1013.0
20260905193514 17 261 11.3 24.1 0.00 0.00 0.00 43 1012.7
20260905193014 17 253 8.0 27.4 0.00 0.00 0.00 44 1012.5
20260905192512 18 246 11.3 40.2 0.00 0.00 0.00 43 1012.4
20260905192011 17 281 12.9 27.4 0.00 0.00 0.00 47 1012.0
20260905191509 17 269 8.0 29.0 0.00 0.00 0.00 48 1011.7
20260905191008 18 256 11.3 29.0 0.00 0.00 0.00 47 1011.4
20260905190507 18 246 14.5 25.7 0.00 0.00 0.00 46 1011.2
20260905190006 18 298 11.3 29.0 0.00 0.00 0.00 45 1011.1
20260905185504 18 213 14.5 37.0 0.00 0.00 0.00 42 1011.2
20260905185003 18 273 16.1 37.0 0.00 0.00 0.00 42 1010.9
20260905184506 18 240 12.9 29.0 0.00 0.00 0.00 42 1011.0
20260905184002 18 233 12.9 27.4 0.00 0.00 0.00 44 1011.0
20260905183503 18 288 12.9 24.1 0.00 0.00 0.00 48 1010.8
20260905183101 18 257 9.7 17.7 0.00 0.00 0.00 51 1010.7
20260905182559 18 245 9.7 27.4 0.00 0.00 0.00 50 1010.7
20260905182058 18 284 11.3 27.4 0.00 0.00 0.00 49 1010.8
20260905181557 18 238 8.0 20.9 0.00 0.00 0.00 48 1010.9
20260905181055 19 201 8.0 20.9 0.00 0.00 0.00 48 1010.9
20260905180556 19 207 8.0 27.4 0.00 0.00 0.00 48 1011.1
20260905175552 20 317 6.4 16.1 0.00 0.00 0.00 48 1011.3
20260905175054 20 242 6.4 17.7 0.00 0.00 0.00 49 1011.1
20260905174549 20 249 4.8 16.1 0.00 0.00 0.00 49 1011.1
20260905174049 20 257 6.4 17.7 0.00 0.00 0.00 49 1011.1
20260905173548 20 242 4.8 29.0 0.00 0.00 0.00 49 1011.0
20260905173149 20 252 8.0 29.0 0.00 0.00 0.00 49 1010.8
20260905172545 20 204 11.3 27.4 0.00 0.00 0.00 50 1010.7
20260905172045 20 261 11.3 37.0 0.00 0.00 0.00 49 1010.5
20260905171545 20 245 16.1 41.8 0.00 0.00 0.00 49 1010.5
20260905171042 20 242 16.1 41.8 0.00 0.00 0.00 51 1010.5
20260905170541 20 243 8.0 17.7 0.00 0.00 0.00 55 1010.4
20260905170044 21 236 8.0 27.4 0.00 0.00 0.00 55 1010.4
20260905165539 21 234 12.9 27.4 0.00 0.00 0.00 54 1010.3
20260905165039 21 227 8.0 25.7 0.00 0.00 0.00 55 1010.2
20260905164537 21 189 9.7 25.7 0.00 0.00 0.00 56 1010.1
20260905164037 21 195 8.0 24.1 0.00 0.00 0.00 56 1010.1
20260905163538 21 187 4.8 17.7 0.00 0.00 0.00 57 1010.0
20260905163035 21 188 4.8 17.7 0.00 0.00 0.00 56 1010.0
20260905162534 21 245 8.0 22.5 0.00 0.00 0.00 56 1009.9
20260905162033 21 220 6.4 22.5 0.00 0.00 0.00 57 1009.9
20260905161534 21 236 8.0 20.9 0.00 0.00 0.00 56 1009.9
20260905161031 21 207 9.7 20.9 0.00 0.00 0.00 56 1009.8
20260905160530 21 227 9.7 17.7 0.00 0.00 0.00 57 1009.8
20260905160028 21 224 8.0 17.7 0.00 0.00 0.00 57 1009.6
20260905155530 21 251 8.0 19.3 0.00 0.00 0.00 56 1009.5
20260905155026 21 267 9.7 19.3 0.00 0.00 0.00 56 1009.4
20260905154526 21 227 6.4 20.9 0.00 0.00 0.00 56 1009.4
20260905154032 21 238 8.0 20.9 0.00 0.00 0.00 56 1009.4
20260905153525 21 207 6.4 19.3 0.00 0.00 0.00 56 1009.3
20260905153025 21 279 9.7 19.3 0.00 0.00 0.00 56 1009.2
20260905152525 21 288 6.4 19.3 0.00 0.00 0.00 56 1009.2
20260905152022 21 238 8.0 19.3 0.00 0.00 0.00 56 1009.2
20260905151522 21 277 9.7 17.7 0.00 0.00 0.00 56 1009.2
20260905151020 21 288 8.0 14.5 0.00 0.00 0.00 57 1009.3
20260905150523 21 244 8.0 22.5 0.00 0.00 0.00 56 1009.2
20260905150020 21 257 9.7 22.5 0.00 0.00 0.00 56 1009.3
20260905145519 21 281 12.9 24.1 0.00 0.00 0.00 56 1009.2
20260905145019 21 266 6.4 22.5 0.00 0.00 0.00 57 1009.2
20260905144523 21 237 8.0 22.5 0.00 0.00 0.00 57 1009.2
20260905144017 21 254 6.4 11.3 0.00 0.00 0.00 56 1009.1
20260905143516 22 231 3.2 14.5 0.00 0.00 0.00 55 1009.2
20260905143018 22 246 6.4 16.1 0.00 0.00 0.00 55 1009.1
20260905142515 22 241 8.0 16.1 0.00 0.00 0.00 55 1009.1
20260905142014 22 298 6.4 16.1 0.00 0.00 0.00 55 1008.9
20260905141512 22 271 4.8 12.9 0.00 0.00 0.00 56 1008.9
20260905141013 22 275 6.4 20.9 0.00 0.00 0.00 56 1008.7
20260905140513 21 290 11.3 20.9 0.00 0.00 0.00 56 1008.7
20260905140009 21 285 8.0 16.1 0.00 0.00 0.00 57 1008.6
20260905135509 21 279 8.0 16.1 0.00 0.00 0.00 58 1008.6
20260905135008 21 288 8.0 16.1 0.00 0.00 0.00 59 1008.5
20260905134508 21 281 6.4 16.1 0.00 0.00 0.00 59 1008.5
20260905134008 21 271 3.2 12.9 0.00 0.00 0.00 59 1008.4
20260905133508 21 297 4.8 12.9 0.00 0.00 0.00 58 1008.4
20260905133008 22 277 4.8 14.5 0.00 0.00 0.00 58 1008.5
20260905132508 22 281 8.0 16.1 0.00 0.00 0.00 57 1008.3
20260905132008 22 281 4.8 16.1 0.00 0.00 0.00 57 1008.3
20260905131508 22 259 4.8 20.9 0.00 0.00 0.00 57 1008.6
20260905131010 22 293 9.7 20.9 0.00 0.00 0.00 57 1008.6
20260905130507 22 275 4.8 16.1 0.00 0.00 0.00 57 1008.6
20260905130007 22 311 4.8 12.9 0.00 0.00 0.00 57 1008.5
20260905125507 22 287 3.2 20.9 0.00 0.00 0.00 57 1008.4
20260905125007 22 300 9.7 20.9 0.00 0.00 0.00 57 1008.4
20260905124506 22 289 9.7 19.3 0.00 0.00 0.00 57 1008.4
20260905124007 22 280 11.3 24.1 0.00 0.00 0.00 57 1008.4
20260905123507 22 238 9.7 22.5 0.00 0.00 0.00 57 1008.4
20260905123006 22 270 11.3 24.1 0.00 0.00 0.00 58 1008.4
20260905122507 22 257 9.7 24.1 0.00 0.00 0.00 58 1008.4
20260905122005 22 305 9.7 29.0 0.00 0.00 0.00 57 1008.4
20260905121504 22 229 12.9 24.1 0.00 0.00 0.00 57 1008.5
20260905121004 22 226 12.9 24.1 0.00 0.00 0.00 57 1008.4
20260905120508 22 292 12.9 24.1 0.00 0.00 0.00 58 1008.4
20260905120004 22 282 11.3 24.1 0.00 0.00 0.00 57 1008.4
20260905115504 22 257 12.9 25.7 0.00 0.00 0.00 57 1008.4
20260905115007 22 284 9.7 25.7 0.00 0.00 0.00 57 1008.3
20260905114504 22 282 9.7 30.6 0.00 0.00 0.00 57 1008.4
20260905114004 22 275 14.5 30.6 0.00 0.00 0.00 57 1008.3
20260905113504 22 257 12.9 29.0 0.00 0.00 0.00 56 1008.4
20260905113004 22 257 12.9 25.7 0.00 0.00 0.00 56 1008.4
20260905112503 22 264 14.5 32.2 0.00 0.00 0.00 56 1008.3
20260905112004 23 252 14.5 33.8 0.00 0.00 0.00 55 1008.6
20260905111505 23 281 20.9 33.8 0.00 0.00 0.00 54 1008.6
20260905111003 23 284 16.1 30.6 0.00 0.00 0.00 54 1008.6
20260905110502 23 288 16.1 32.2 0.00 0.00 0.00 53 1008.8
20260905110002 23 274 19.3 37.0 0.00 0.00 0.00 52 1008.7
20260905105502 23 295 19.3 37.0 0.00 0.00 0.00 52 1008.7
20260905105002 23 240 16.1 41.8 0.00 0.00 0.00 52 1008.7
20260905104501 23 280 19.3 41.8 0.00 0.00 0.00 52 1008.8
20260905104004 23 279 16.1 35.4 0.00 0.00 0.00 53 1008.8
20260905103505 23 274 16.1 41.8 0.00 0.00 0.00 53 1008.9
20260905103006 23 264 16.1 41.8 0.00 0.00 0.00 53 1008.8
20260905102501 23 263 17.7 32.2 0.00 0.00 0.00 52 1008.8
20260905102001 23 249 12.9 32.2 0.00 0.00 0.00 53 1008.9
20260905101607 23 254 14.5 35.4 0.00 0.00 0.00 53 1009.0
20260905101502 23 236 16.1 35.4 0.00 0.00 0.00 52 1009.0
20260905101100 23 270 22.5 35.4 0.00 0.00 0.00 53 1009.1
20260905100600 23 262 17.7 45.1 0.00 0.00 0.00 54 1009.6
20260905100201 23 287 25.7 45.1 0.00 0.00 0.00 53 1010.1
20260905095559 23 248 16.1 40.2 0.00 0.00 0.00 52 1010.2
20260905095059 23 289 17.7 40.2 0.00 0.00 0.00 52 1010.2
20260905094559 23 238 20.9 40.2 0.00 0.00 0.00 54 1010.5
20260905094058 23 289 11.3 27.4 0.00 0.00 0.00 56 1010.6
20260905093558 23 263 14.5 27.4 0.00 0.00 0.00 56 1010.6
20260905093059 23 285 14.5 27.4 0.00 0.00 0.00 56 1010.8
20260905092601 23 237 12.9 29.0 0.00 0.00 0.00 57 1010.9
20260905092058 23 293 16.1 29.0 0.00 0.00 0.00 57 1010.7
20260905091606 23 227 14.5 27.4 0.00 0.00 0.00 58 1010.8
20260905091100 23 267 11.3 38.6 0.00 0.00 0.00 58 1010.5
20260905090601 23 287 12.9 41.8 0.00 0.00 0.00 58 1010.4
20260905090057 23 256 16.1 41.8 0.00 0.00 0.00 57 1010.6
20260905085557 23 252 17.7 30.6 0.00 0.00 0.00 56 1010.4
20260905085057 23 287 12.9 30.6 0.00 0.00 0.00 57 1010.5
20260905084600 23 248 14.5 29.0 0.00 0.00 0.00 56 1010.6
20260905084057 23 259 11.3 33.8 0.00 0.00 0.00 58 1010.5
20260905083557 23 276 16.1 33.8 0.00 0.00 0.00 56 1010.5
20260905083109 23 285 6.4 20.9 0.00 0.00 0.00 54 1010.3
20260905082556 24 249 8.0 19.3 0.00 0.00 0.00 53 1010.0
20260905082056 24 159 8.0 22.5 0.00 0.00 0.00 53 1009.8
20260905081555 25 225 4.8 22.5 0.00 0.00 0.00 51 1009.7
20260905081055 25 200 6.4 22.5 0.00 0.00 0.00 50 1009.9
20260905080555 25 85 8.0 32.2 0.00 0.00 0.00 50 1009.8
20260905080055 25 272 11.3 32.2 0.00 0.00 0.00 49 1009.7
20260905075556 25 186 12.9 32.2 0.00 0.00 0.00 49 1009.7
20260905075054 25 150 16.1 29.0 0.00 0.00 0.00 47 1009.6
20260905074555 26 236 9.7 37.0 0.00 0.00 0.00 45 1009.4
20260905074057 27 165 12.9 33.8 0.00 0.00 0.00 41 1009.3
20260905073554 28 224 6.4 20.9 0.00 0.00 0.00 34 1008.4
20260905073057 28 275 11.3 20.9 0.00 0.00 0.00 33 1007.7
20260905072558 28 274 9.7 24.1 0.00 0.00 0.00 33 1007.6
20260905072057 28 264 8.0 29.0 0.00 0.00 0.00 33 1007.5
20260905071555 29 246 12.9 29.0 0.00 0.00 0.00 33 1007.4
20260905071053 29 275 12.9 35.4 0.00 0.00 0.00 32 1007.3
20260905070553 29 268 17.7 35.4 0.00 0.00 0.00 32 1007.3
20260905070054 29 286 14.5 25.7 0.00 0.00 0.00 32 1007.2
20260905065552 29 252 11.3 25.7 0.00 0.00 0.00 32 1007.1
20260905065052 30 300 8.0 30.6 0.00 0.00 0.00 32 1007.0
20260905064611 30 262 12.9 37.0 0.00 0.00 0.00 32 1007.0
20260905064052 30 249 20.9 43.5 0.00 0.00 0.00 31 1006.8
20260905063551 30 261 17.7 43.5 0.00 0.00 0.00 31 1006.6
20260905063054 30 302 17.7 48.3 0.00 0.00 0.00 31 1006.6
20260905062551 30 247 24.1 48.3 0.00 0.00 0.00 31 1006.6
20260905062051 30 242 22.5 48.3 0.00 0.00 0.00 31 1006.6
20260905061551 30 284 17.7 48.3 0.00 0.00 0.00 31 1006.7
20260905061050 30 263 27.4 48.3 0.00 0.00 0.00 31 1006.6
20260905060553 30 250 19.3 38.6 0.00 0.00 0.00 31 1006.6
20260905060051 30 273 17.7 38.6 0.00 0.00 0.00 31 1006.7
20260905055551 30 220 16.1 29.0 0.00 0.00 0.00 31 1006.5
20260905055050 30 268 17.7 41.8 0.00 0.00 0.00 31 1006.4
20260905054644 30 217 20.9 41.8 0.00 0.00 0.00 31 1006.5
20260905054050 30 261 19.3 40.2 0.00 0.00 0.00 30 1006.5
20260905053550 30 297 19.3 41.8 0.00 0.00 0.00 30 1006.5
20260905053050 30 257 22.5 41.8 0.00 0.00 0.00 30 1006.5
20260905052549 30 287 19.3 37.0 0.00 0.00 0.00 30 1006.6
20260905052049 30 241 17.7 37.0 0.00 0.00 0.00 30 1006.6
20260905051548 30 309 17.7 30.6 0.00 0.00 0.00 30 1006.7
20260905051047 30 272 14.5 45.1 0.00 0.00 0.00 30 1006.7
20260905050547 30 242 16.1 45.1 0.00 0.00 0.00 30 1006.8
20260905050047 30 265 16.1 41.8 0.00 0.00 0.00 30 1006.9
20260905045546 30 253 19.3 41.8 0.00 0.00 0.00 30 1006.8
20260905045046 30 241 17.7 41.8 0.00 0.00 0.00 30 1007.0
20260905044602 30 259 17.7 41.8 0.00 0.00 0.00 30 1006.9
20260905044045 30 260 24.1 41.8 0.00 0.00 0.00 29 1007.0
20260905043545 30 234 20.9 40.2 0.00 0.00 0.00 30 1007.1
20260905043044 31 250 12.9 38.6 0.00 0.00 0.00 30 1007.1
20260905042543 30 256 22.5 38.6 0.00 0.00 0.00 29 1007.3
20260905042043 31 272 17.7 40.2 0.00 0.00 0.00 30 1007.4
20260905041542 30 260 16.1 40.2 0.00 0.00 0.00 30 1007.5
20260905041041 31 265 17.7 35.4 0.00 0.00 0.00 30 1007.5
20260905040542 31 247 12.9 32.2 0.00 0.00 0.00 31 1007.7
20260905040040 31 227 12.9 32.2 0.00 0.00 0.00 31 1007.8
20260905035538 30 238 8.0 29.0 0.00 0.00 0.00 33 1007.8
20260905035037 30 248 16.1 37.0 0.00 0.00 0.00 33 1007.9
20260905034536 30 292 17.7 37.0 0.00 0.00 0.00 34 1008.2
20260905034035 29 236 12.9 22.5 0.00 0.00 0.00 36 1008.2
20260905033533 29 284 6.4 20.9 0.00 0.00 0.00 37 1008.4
20260905033038 28 275 11.3 22.5 0.00 0.00 0.00 36 1008.5
20260905032531 28 248 8.0 22.5 0.00 0.00 0.00 37 1008.8
20260905032029 28 257 6.4 19.3 0.00 0.00 0.00 39 1008.9
20260905031530 28 338 3.2 16.1 0.00 0.00 0.00 40 1009.0
20260905031028 28 290 4.8 16.1 0.00 0.00 0.00 39 1009.2
20260905030526 28 257 3.2 17.7 0.00 0.00 0.00 38 1009.3
20260905030032 28 331 6.4 17.7 0.00 0.00 0.00 38 1009.5
20260905025523 28 355 6.4 19.3 0.00 0.00 0.00 38 1009.7
20260905025022 28 267 8.0 19.3 0.00 0.00 0.00 37 1009.9
20260905024520 28 351 3.2 17.7 0.00 0.00 0.00 38 1010.1
20260905024019 27 299 6.4 19.3 0.00 0.00 0.00 38 1010.3
20260905023518 27 321 8.0 25.7 0.00 0.00 0.00 38 1010.4
20260905023017 27 292 9.7 25.7 0.00 0.00 0.00 37 1010.5
20260905022515 27 304 6.4 17.7 0.00 0.00 0.00 37 1010.7
20260905022015 27 311 9.7 16.1 0.00 0.00 0.00 37 1010.9
20260905021512 27 300 8.0 22.5 0.00 0.00 0.00 37 1011.0
20260905021011 27 308 9.7 22.5 0.00 0.00 0.00 37 1011.2
20260905020510 27 317 11.3 24.1 0.00 0.00 0.00 37 1011.3
20260905020010 27 277 12.9 29.0 0.00 0.00 0.00 37 1011.3
20260905015511 27 280 9.7 20.9 0.00 0.00 0.00 36 1011.5
20260905015008 27 262 8.0 20.9 0.00 0.00 0.00 37 1011.5
20260905014506 27 323 8.0 20.9 0.00 0.00 0.00 37 1011.7
20260905014006 27 263 6.4 20.9 0.00 0.00 0.00 38 1011.8
20260905013504 26 288 8.0 19.3 0.00 0.00 0.00 38 1011.8
20260905013004 26 304 8.0 20.9 0.00 0.00 0.00 38 1012.0
20260905012604 26 261 9.7 20.9 0.00 0.00 0.00 38 1012.0
20260905012100 26 252 9.7 20.9 0.00 0.00 0.00 38 1012.2
20260905011558 26 275 8.0 27.4 0.00 0.00 0.00 38 1012.4
20260905011100 26 305 9.7 27.4 0.00 0.00 0.00 37 1012.5
20260905010555 26 213 6.4 14.5 0.00 0.00 0.00 39 1012.7
20260905005552 25 297 11.3 22.5 0.00 0.00 0.00 40 1013.1
20260905005052 25 267 9.7 19.3 0.00 0.00 0.00 40 1013.1
20260905004550 25 273 9.7 17.7 0.00 0.00 0.00 40 1013.3
20260905004048 24 238 9.7 20.9 0.00 0.00 0.00 41 1013.5
20260905003547 24 258 6.4 22.5 0.00 0.00 0.00 41 1013.7
20260905003046 24 297 9.7 16.1 0.00 0.00 0.00 41 1013.8
20260905002545 24 279 8.0 16.1 0.00 0.00 0.00 42 1013.9
20260905002043 23 274 6.4 20.9 0.00 0.00 0.00 42 1014.0
20260905001542 23 264 8.0 17.7 0.00 0.00 0.00 41 1014.0
20260905001041 23 259 8.0 17.7 0.00 0.00 0.00 41 1014.1
20260905000542 23 303 6.4 20.9 0.00 0.00 0.00 41 1014.3
20260905000037 23 232 8.0 20.9 0.00 0.00 0.00 40 1014.4
20260904235535 23 250 4.8 16.1 0.00 0.00 0.00 42 1014.4